sat.trackr.live / text

‹ back to catalog

STARLINK-4189

NORAD 52853 · 2022-062Z

PAYLOAD ACTIVE UNKNOWN

§ Identity

Operator
Country
US
Launch date
2022-06-17
Launch site
AFETR
Launch vehicle
Mass (kg)
RCS (m²)

Purposes: comms

External: N2YO · Heavens-Above · Gunter

§ Orbital elements

Epoch: 2026-08-11T00:06:34.067808Z

Period
88.16 min
Inclination
53.2000°
Eccentricity
0.0010254
Mean motion
16.33359621 rev/d
Perigee alt
176.8 km
Apogee alt
190.3 km
Semi-major
6,561.7 km
B*
6.6232e-4
RAAN
19.4661°
Arg perigee
299.5522°
Mean anomaly
60.4501°
Rev number
22,966

§ Raw data

STARLINK-41891 52853U 22062Z   26223.00456097  .04395230  12188-4  66232-3 0  99932 52853  53.2000  19.4661 0010254 299.5522  60.4501 16.33359621229668

JSON: /api/v1/satellites/52853 · /tle

For live sub-satellite position, see the globe view (requires WebGL).

§ Visibility from observer

Set your observer location to see the next 7 days of passes ≥ 10°. The values pass through the URL so the page stays shareable.

No JS? Fill the form by hand. The geolocation button needs JavaScript.